Regional Weather Roundup
Issued by NWS

Home | Current Version | Previous Version | Graphics & Text | Print | Product List | Glossary On
Versions: 1 2 3 4 5 6 7 8 9 10 11 12 13 14 15 16 17 18 19 20 21 22 23 24 25 26 27 28 29 30 31 32 33 34 35 36 37 38 39 40 41 42 43 44 45 46 47 48 49 50
000
ASUS43 KLOT 232102
RWRIL

ILLINOIS REGIONAL WEATHER ROUNDUP
NATIONAL WEATHER SERVICE CHICAGO/ROMEOVILLE IL
400 PM CDT THU MAR 23 2017

NOTE: "FAIR" INDICATES FEW OR NO CLOUDS BELOW 12,000 FEET WITH NO
SIGNIFICANT WEATHER AND/OR OBSTRUCTIONS TO VISIBILITY.

* THESE STATIONS ARE NOT UNDER NWS QUALITY CONTROL. THEY ALSO MAY NOT
  REPORT WEATHER SUCH AS PRECIPITATION OR FOG.

ILZ001-002-007-009-015-016-024-232200-
NORTHWEST ILLINOIS

CITY           SKY/WX    TMP DP  RH WIND       PRES   REMARKS
MOLINE         CLOUDY    41  34  76 SE14G26   30.07F
STERLING*      CLOUDY    43  28  55 SE10G18   30.13F
SAVANNA*       CLOUDY    43  27  54 SE13      30.11F
$$

ILZ003-004-008-010-011-017-018-232200-
NORTH CENTRAL ILLINOIS

CITY           SKY/WX    TMP DP  RH WIND       PRES   REMARKS
ROCKFORD       CLOUDY    45  23  42 S20       30.15F
FREEPORT*      CLOUDY    42  24  49 SE17      30.14F
ROCHELLE*      CLOUDY    44  26  47 S17       30.14F
DE KALB*       CLOUDY    47  25  43 S21       30.14F
PERU*          DRIZZLE   42  29  61 S15       30.15F
$$

ILZ005-006-012>014-019>023-232200-
NORTHEAST ILLINOIS

CITY           SKY/WX    TMP DP  RH WIND       PRES   REMARKS
CHICAGO-OHARE  CLOUDY    48  24  39 S16G24    30.18F
CHICAGO-MIDWAY CLOUDY    48  26  42 S15G23    30.19F
AURORA         CLOUDY    50  25  37 S17G26    30.15F
LANSING*       CLOUDY    47  31  53 SE13G18   30.21F
JOLIET*        CLOUDY    51  26  38 SE9       30.18F
WAUKEGAN       CLOUDY    39  27  62 SE13      30.18F WCI  31
DUPAGE AIRPORT CLOUDY    48  27  44 S16       30.16F
WHEELING       CLOUDY    47  22  37 S16G24    30.19F
MORRIS*        CLOUDY    49  24  37 S15G21    30.16F
NORTHERLY ISL    N/A     47  24  41 S8          N/A
$$

LMZ740>746-232200-
SOUTHERN LAKE MICHIGAN

STATION/POSITION SKY/WX   TEMP    WIND        PRES    VSBY  WAVE
                          AIR SEA DIR/SP/G                  HT/PER
                          (F)     (DEG/KT/KT) (MB)    (MI)  (FT/S)
HARRISON CRIB              41     160/ 14/ 17   N/A
BURNHAM HARBOR             46     140/  9/ 16   N/A
CALUMET HARBOR             46     140/ 12/ 20 1022.2F
BURNS HARBOR               46     150/ 10/ 16 1023.4F
MICHIGAN CITY              44     130/ 15/ 19   N/A
$$

ILZ025>027-034>036-040-047-049-050-058-095>099-232200-
WEST-CENTRAL ILLINOIS

CITY           SKY/WX    TMP DP  RH WIND       PRES   REMARKS
QUINCY         SUNNY     54  39  57 SE17G24   30.01F
GALESBURG*     CLOUDY    41  38  88 SE15G24   30.06F
MACOMB*        PTSUNNY   46  42  86 SE20      30.08F
JACKSONVILLE*  PTSUNNY   47  39  73 SE16      30.10F
PITTSFIELD*    SUNNY     52  40  63 SE16G22   30.07F
$$

ILZ028>032-037-038-041>044-048-051>054-059>061-232200-
CENTRAL ILLINOIS

CITY           SKY/WX    TMP DP  RH WIND       PRES   REMARKS
PONTIAC        DRIZZLE   47  31  54 SE10      30.18F
BLOOMINGTON    CLOUDY    45  28  51 S14       30.16F
DECATUR        CLOUDY    44  34  67 SE16      30.16F
PEORIA         LGT RAIN  41  35  79 SE12      30.14F
SPRINGFIELD    CLOUDY    45  40  82 SE15      30.13F
TAYLORVILLE    NOT AVBL
$$

ILZ033-039-045-046-055>057-062-063-232200-
EAST-CENTRAL ILLINOIS

CITY           SKY/WX    TMP DP  RH WIND       PRES   REMARKS
CHAMPAIGN      CLOUDY    50  24  36 SE15      30.18F
RANTOUL*       LGT RAIN  49  29  47 SE14      30.18F
MATTOON        CLOUDY    46  32  58 S12       30.18F
PARIS*         CLOUDY    51  30  43 SE15      30.21F
$$

ILZ079-100>102-232200-
SOUTHWEST ILLINOIS

CITY           SKY/WX    TMP DP  RH WIND       PRES   REMARKS
ALTON          MOSUNNY   52  41  66 SE16      30.12F
CAHOKIA*       SUNNY     58  42  55 SE17      30.11F
SPARTA*        SUNNY     56  43  61 SE10      30.15F
$$

ILZ064>066-069>071-074>076-080>082-084>086-088>090-092>094-232200-
SOUTH-CENTRAL ILLINOIS

CITY           SKY/WX    TMP DP  RH WIND       PRES   REMARKS
CARBONDALE     SUNNY     60  45  57 E13       30.17F
CAIRO*         SUNNY     65  40  38 E6        30.18F
EFFINGHAM*     CLOUDY    44  38  78 E10       30.22F
MARION         SUNNY     59  46  63 E9        30.20F
MT. VERNON     CLOUDY    53  42  66 SE10      30.20F
CENTRALIA*     SUNNY     53  43  70 SE16      30.16F
SALEM*         CLOUDY    49  41  76 SE10      30.18F
$$

ILZ067-068-072-073-078-083-087-091-232200-
SOUTHEAST ILLINOIS

CITY           SKY/WX    TMP DP  RH WIND       PRES   REMARKS
LAWRENCEVILLE  CLOUDY    48  32  53 SE15      30.24F
FLORA*         PTSUNNY   48  41  77 SE9       30.21F
FAIRFIELD*     MOSUNNY   50  41  70 SE9       30.20F
HARRISBURG*    SUNNY     52  44  74 SE12      30.22F
ROBINSON*      CLOUDY    49  30  48 SE13      30.24F
CARMI*         MOSUNNY   51  42  69 SE10      30.22F
$$

ABBREVIATIONS USED IN REMARKS
   TC - TEMPERATURE IN CELSIUS
  WCI - WIND CHILL INDEX
   HX - HEAT INDEX
  VSB - VISIBILITY
$$





USA.gov is the U.S. government's official web portal to all federal, state and local government web resources and services.